Погода в Рубцовске

Погода в Рубцовске : погода сейчас, прогноз погоды и архив. Всё, что Вы хотите узнать о погоде в Рубцовске!

Хотите узнать прогноз погоды в Рубцовске? Тогда Вам сюда: Погода в Рубцовске

Поиск расширенной информации на нашем сайте:

Полезная информация:

Другие новости

Новости СМИ2

Главная страница сайта

Новости сайта

03.07.2017

Напоминаем, что на нашем специализированном сайте Метеоцентр.Азия вы можете получить высокодетализированные автоматические прогнозы погоды по пунктам России, СНГ и мира в авиационном формате (включающие направление и скорость ветра, видимость, явления погоды, количество и форму облачности, нижнюю и верхнюю границу облачности).

Рекомендуем:

Погода в Рубцовске - сегодня

Время (UTC), дата Ветер
(°,м/с) 
Видим.   Явления Облачность Т
(°С)
Тd
(°С)
f(%) Тe
(°С)
Pmin
(гПа)
dP
(гПа)
Po
(мм)
O2
(г/м3)
Тmin Tmax R s Состояние
почвы
00 22.05.19 210 (ЮЗ) 20000 м    6/0 верхняя 
[Ci sp]
+6 +1 70 +6  1011.9  0.3  739  291  +4.2        сухая 
03 22.05.19 190 (Ю) 20000 м    9/0 средняя, верхняя 
[Ac cast|Cc]
+12.9 +2.8 50 +14  1009.6  -1.6  738  283           
06 22.05.19 330 (СЗ) 20000 м  слаб. ливневой дождь  10/10 270 м кучево-дожд. 
[Cb cap]
+11.7 +1.9 51 +11  1008.3  -1.4  737  284           
09 22.05.19 360 (С) 20000 м  слаб. ливневой дождь  10/10 210 м кучево-дожд. 
[Cb cap]
+8.9 +6 82 +8  1007.3  -1.2  736  286           
12 22.05.19 180 (Ю) 20000 м  осадки на расстоянии{ливн. осадки}  10/10 600 м кучево-дожд. 
[Cb cap]
+10.6 +3.4 61 +11  1007.6  0.5  736  285    +14.6  0.6     
15 22.05.19 260 (З) 1{11}  20000 м  слаб. ливневой дождь  10/10 600 м кучево-дожд. 
[Cb cap]
+7.4 +5.6 88 +8  1011  738  289           
18 22.05.19 220 (ЮЗ) 20000 м  {ливн. осадки}  1/1 300 м 
[Sc]
+6.6 +5 90 +6  1013.4  2.2  740  290           
21 22.05.19 210 (ЮЗ) 20000 м    10/0 средняя, верхняя 
[Ac und|Ci fib]
+4.7 +3.3 91 +4  1014.5  741  293           
00 23.05.19 220 (ЮЗ) 20000 м    3/3 600 м кучево-дожд. 
[Cb cap]
+4.1 +2.7 91 +2  1016.3  1.6  742  294  +3.4    0.5    влажная 
03 23.05.19 230 (ЮЗ) 7{10}  20000 м    10/10 600 м кучево-дожд. 
[Cb cap]
+6.7 +4.5 86 +4  1017.9  1.9  743  292           
06 23.05.19 240 (ЮЗ) 5{10}  20000 м    8/8 1000 м 
[Cu Sc]
+11.6 +3.7 58 +11  1017.8  0.3  744  287           
09 23.05.19 270 (З) 5{13}  20000 м    10/3 600 м кучево-дожд., средняя, верхняя 
[Cb cap|Ac cast|Ci sp]
+12.2 +1 46 +11  1018.4  0.6  744  287           
12 23.05.19 260 (З) 4{10}  20000 м  {ливн. осадки}  8/3 600 м средняя 
[Sc|Ac trans]
+11.7 +1.6 50 +11  1018.9  0.5  744  287    +13.5  0.0     
15 23.05.19 230 (ЮЗ) 20000 м    3/0 средняя 
[Ac lent]
+9.6 +1.7 58 +10  1019.9  0.8  745  290           
18 23.05.19 180 (Ю) 20000 м    1/0 средняя 
[Ac trans]
+6.8 +0.5 64 +7  1020.8  0.6  746  293           
21 23.05.19 210 (ЮЗ) 20000 м    10/0 средняя 
[Ac und]
+6.9 +0.9 66 +7  1021.1  0.3  746  293           
00 24.05.19 170 (Ю) 20000 м    1/0 средняя 
[Ac und]
+7.8 +1.2 63 +7  1021.2  0.2  746  292  +6.5        сухая 
03 24.05.19 200 (Ю) 20000 м    3/0 верхняя 
[Ci fib]
+14 +1.5 43 +14  1020.8  0.1  746  286           
06 24.05.19 200 (Ю) 20000 м    8/8 1000 м 
[Sc]
+17.9 -1.5 27 +18  1019.2  -1.2  745  282           
09 24.05.19 200 (Ю) 20000 м    6/6 1500 м 
[Sc diur, vesp]
+19.8 -2.5 22 +21  1017.5  -1.5  744  280           
12 24.05.19 160 (Ю) 20000 м    8/8 1500 м 
[Sc]
+19.2 -3.1 22 +20  1016.3  -1.1  743  280    +20.1       
15 24.05.19 150 (ЮВ) 20000 м    1/0 средняя 
[Ac lent]
+16.6 -0.5 31 +17  1016.4  -0.2  743  282           
18 24.05.19 160 (Ю) 5{10}  20000 м    ясно 
+13.3 -0.1 40 +13  1016.9  0.2  743  285           
21 24.05.19 160 (Ю) 20000 м    3/0 верхняя 
[Ci fib]
+11.9 -0.6 42 +11  1016.2  -0.8  743  287           
00 25.05.19 180 (Ю) 20000 м    10/0 верхняя 
[Cs]
+11.7 +0.5 46 +11  1016.3  743  287  +11.5        сухая 
Время (UTC), дата Ветер
(°,м/с) 
Видим.   Явления Облачность Т
(°С)
Тd
(°С)
f(%) Тe
(°С)
Pmin
(гПа)
dP
(гПа)
Po
(мм)
O2
(г/м3)
Тmin Tmax R s Состояние
почвы

Для получения пояснительной информации подведите курсор к названию столбца.

ПОГОДА в Рубцовске - архив

Всё, что Вы хотите узнать о погоде в Рубцовске - удобно и подробно!

Выберите нужную дату (начиная с 1 января 2018* года) и нажмите кнопку "Найти".
Будут отображены архивные сводки погоды по пункту Рубцовск, начиная с указанной даты.


Отображать данные в формате CSV (для использования в таблицах Excel)


Внимание! Наш архив погоды предназначен исключительно для личного некоммерческого использования в познавательных целях. Если Вам необходимы официальные справки о состоянии погоды (для производственных, юридических, коммерческих и т.п. целей), обращайтесь в органы Росгидромета.

*Примечание: данная дата относится к архиву по метеостанциям СССР (Россия, СНГ, Балтия).
Архив по метеостанциям Зарубежной Европы и Азии (кроме Китая) хранится 10 дней, по другим регионам земного шара (Китай, Африка, Америка, Австралия, Океания) - 1 день.

Рубцовск - район местоположения метеостанции


Название, широта, долгота, высота метеостанции:
Рубцовск 51.5°ш. 81.2°д. 219 м над ур. моря [Российская Федерация]

Дополнительная информация

В oтличие oт бoльшинства пoгoдных сайтoв мы публикуем пoдрoбную метеoинфoрмацию в детальнoм прoфессиoнальнoм фoрмате.

Характеристики температуры и влажнoсти вoздуха измеряются на высoте 2 м в тени вдали oт зданий и деревьев.
Скoрoсть ветра измеряется на высoте 10 м (на урoвне рoста челoвека скoрoсть ветра ниже в 1.5-2 раза). Если метеoстанция нахoдится в гoрoде или в лесу, тo скoрoсть ветра занижена на 2-4 м/с пo сравнению с oткрытым местoм. Скoрoсть ветра над акватoриями крупных рек и oзёр, а также на вершинах хoлмoв на 2-5 м/с выше, чем в oбычных услoвиях.
Атмoсфернoе давление в разных тoчках местнoсти мoжет значительнo oтличаться oт давления на метеoстанции, в зависимoсти oт услoвий рельефа (при пoдъёме на 10 м давление пoнижается примернo на 1 мм рт.ст.).